EW2719 Weather Reports


time (UTC)temp
C
wind
direction
speed
KPH
gust
KPH
rain 1hr
cm
rain 24hr
cm
rain mn
cm
humidity
%
barometer
mb
20260504024514 8 333 12.9 22.5 0.03 0.69 0.25 95 1006.5
20260504023007 9 345 8.0 17.7 0.05 0.69 0.25 95 1006.4
20260504021506 9 350 11.3 16.1 0.05 0.66 0.23 95 1006.2
20260504020003 10 360 6.4 12.9 0.08 0.66 0.23 95 1006.2
20260504014559 10 5 8.0 14.5 0.13 0.66 0.23 94 1006.1
20260504013113 10 360 4.8 12.9 0.13 0.64 0.23 94 1006.1
20260504011555 10 30 1.6 4.8 0.13 0.61 0.18 94 1006.3
20260504010154 10 138 1.6 3.2 0.13 0.58 0.15 94 1006.3
20260504004606 10 138 0.0 3.2 0.08 0.53 0.13 94 1006.1
20260504003051 10 137 0.0 3.2 0.05 0.51 0.10 94 1006.2
20260504001550 10 137 1.6 4.8 0.05 0.48 0.05 94 1006.3
20260504000050 10 138 0.0 0.0 0.03 0.46 0.05 94 1006.3
20260503234549 10 138 0.0 1.6 0.03 0.46 0.05 94 1006.3
20260503233047 10 138 1.6 4.8 0.03 0.46 0.05 94 1006.5
20260503231548 10 136 0.0 3.2 0.03 0.43 0.03 94 1006.5
20260503230054 11 136 0.0 1.6 0.03 0.43 0.03 94 1006.7
20260503224543 11 136 0.0 0.0 0.05 0.43 0.03 94 1006.8
20260503223042 11 136 0.0 0.0 0.08 0.43 0.03 94 1006.8
20260503221540 11 136 0.0 1.6 0.08 0.43 0.00 94 1006.8
20260503220039 11 136 0.0 4.8 0.15 0.43 0.00 93 1006.7
20260503214538 11 136 0.0 4.8 0.20 0.41 0.41 93 1006.9
20260503213035 11 138 1.6 6.4 0.23 0.36 0.36 93 1007.2
20260503211535 11 159 3.2 11.3 0.30 0.33 0.33 93 1007.5
20260503210034 11 173 6.4 11.3 0.25 0.28 0.28 93 1007.8
20260503204535 11 195 8.0 11.3 0.18 0.20 0.20 92 1008.0
20260503203040 11 230 3.2 11.3 0.10 0.13 0.13 92 1007.7
20260503201532 11 261 3.2 6.4 0.03 0.05 0.05 92 1007.8
20260503200031 11 171 0.0 0.0 0.00 0.03 0.03 91 1007.8
20260503194533 11 171 0.0 1.6 0.03 0.03 0.03 91 1007.6
20260503193030 12 171 1.6 4.8 0.03 0.03 0.03 91 1007.3
20260503191536 12 179 0.0 0.0 0.03 0.03 0.03 90 1007.3
20260503190029 12 178 0.0 1.6 0.03 0.03 0.03 90 1007.5
20260503184528 12 179 0.0 3.2 0.00 0.00 0.00 89 1007.3
20260503183025 12 192 4.8 9.7 0.00 0.00 0.00 89 1007.8
20260503181524 12 196 6.4 14.5 0.00 0.00 0.00 88 1008.0
20260503180032 13 202 8.0 12.9 0.00 0.00 0.00 87 1008.2
20260503174522 13 199 6.4 9.7 0.00 0.00 0.00 87 1008.2
20260503173021 13 192 3.2 9.7 0.00 0.00 0.00 86 1008.1
20260503171524 13 200 6.4 12.9 0.00 0.00 0.00 85 1008.2
20260503081536 12 244 9.7 17.7 0.00 0.00 0.00 87 1010.7
20260503071534 12 280 12.9 20.9 0.00 0.00 0.00 89 1010.4
20260503054536 11 260 11.3 20.9 0.00 0.00 0.00 92 1010.4
20260503053029 11 257 9.7 20.9 0.00 0.00 0.00 92 1010.3
20260503051528 11 232 9.7 17.7 0.00 0.00 0.00 92 1010.1
20260503050023 10 255 9.7 17.7 0.00 0.00 0.00 92 1010.3
20260503044522 10 234 9.7 17.7 0.00 0.00 0.00 93 1010.3
20260503043034 10 218 6.4 12.9 0.00 0.00 0.00 93 1010.4
20260503041520 10 216 6.4 11.3 0.00 0.00 0.00 93 1010.3
20260503040016 10 229 4.8 11.3 0.00 0.00 0.00 93 1010.5
20260503034517 10 221 8.0 16.1 0.00 0.00 0.00 93 1010.5
20260503033020 10 241 9.7 16.1 0.00 0.00 0.00 93 1010.4
20260503031514 10 253 8.0 17.7 0.00 0.00 0.00 93 1010.1
20260503030012 10 236 6.4 14.5 0.00 0.00 0.00 93 1010.2